Location: Newark
(25.4297°S, 49.2719°W)
Time: 06:17:18
(UTC+00:00)

Vanguard 1 Rocket - Pass Details

Date: 28 November 2019
Orbit: 650 x 4226 km, 34.3° (Epoch: 14 December)

Event Time Altitude Azimuth Distance (km) Brightness Sun altitude
Rises 22:43:28 0° 246° (WSW) 8,449 14.5 -11.1°
Reaches altitude 10° 22:49:41 10° 250° (WSW) 7,440 13.5 -12.4°
Maximum altitude 23:13:15 49° 315° (NW) 4,062 10.7 -16.8°
Enters shadow 23:26:36 16° 22° (NNE) 4,642 10.5 -19.3°
Drops below altitude 10° 23:28:15 10° 26° (NNE) 4,914 - -19.6°
Sets 23:31:26 0° 32° (NNE) 5,523 - -20.2°
